Tahlequah, OK

2:54 PM CDT on August 28, 2016 (GMT -0500)
Tahlequah Municipal

Weather History for KTQH - October, 2012

Change the Weather History Date:

Monday, October 8, 2012

  Actual Average (KMKO) Record (KMKO)
Temperature  
Mean Temperature 46 °F -  
Max Temperature 60 °F 74 °F 87 °F (2015)
Min Temperature 32 °F 50 °F 32 °F (2000)
Degree Days  
Heating Degree Days 19    
Moisture  
Dew Point 36 °F    
Average Humidity 79    
Maximum Humidity 100    
Minimum Humidity 42    
Precipitation  
Precipitation 0.01 in - - ()
Sea Level Pressure  
Sea Level Pressure 30.18 in    
Wind  
Wind Speed 1 mph (SSW)    
Max Wind Speed 10 mph    
Max Gust Speed 16 mph    
Visibility 7 miles    
Events Fog    
Averages and records for this station are not official NWS values.
T = Trace of Precipitation, MM = Missing Value Source: NWS Daily Summary

Daily Weather History Graph

Daily Weather History Graph

Search for Another Location

Airport or City:

Trip Planner

Search our weather history database for the weather conditions in past years. The results will help you decide how hot, cold, wet, or windy it might be!

Date:

Astronomy

Oct. 08, 2012 Rise Set
Actual Time 7:21 AM CDT 6:52 PM CDT
Civil Twilight 6:55 AM CDT 7:18 PM CDT
Nautical Twilight 6:25 AM CDT 7:48 PM CDT
Astronomical Twilight 5:56 AM CDT 8:17 PM CDT
Moon 12:14 AM CDT (10/8) 2:31 PM CDT (10/8)
Length of Visible Light 12h 23m
Length of Day
11h 31m
Last Quarter, 46% of the Moon is Illuminated
Oct 8
Last Quarter
Oct 15
New
Oct 21
First Quarter
Oct 29
Full
Nov 6
Last Quarter

Hourly Weather History & Observations

Time (CDT) Temp. Windchill Dew Point Humidity Pressure Visibility Wind Dir Wind Speed Gust Speed Precip Events Conditions
12:15 AM 35.6 °F - 35.6 °F 100% 30.25 in 10.0 mi Calm Calm - N/A   Clear
12:35 AM 35.6 °F - 33.8 °F 93% 30.24 in 7.0 mi Calm Calm - N/A   Clear
12:55 AM 33.8 °F - 33.8 °F 100% 30.24 in 7.0 mi Calm Calm - N/A   Clear
1:15 AM 33.8 °F - 33.8 °F 100% 30.24 in 5.0 mi Calm Calm - N/A   Clear
1:35 AM 33.8 °F - 32.0 °F 93% 30.24 in 7.0 mi Calm Calm - N/A   Clear
1:55 AM 32.0 °F - 32.0 °F 100% 30.25 in 7.0 mi Calm Calm - N/A   Clear
2:15 AM 33.8 °F - 33.8 °F 100% 30.24 in 7.0 mi Calm Calm - N/A   Clear
2:35 AM 32.0 °F - 32.0 °F 100% 30.24 in 7.0 mi Calm Calm - N/A   Clear
2:55 AM 32.0 °F - 32.0 °F 100% 30.24 in 5.0 mi Calm Calm - N/A   Clear
3:15 AM 32.0 °F - 32.0 °F 100% 30.23 in 7.0 mi Calm Calm - N/A   Clear
3:35 AM 32.0 °F - 32.0 °F 100% 30.22 in 7.0 mi Calm Calm - N/A   Clear
3:55 AM 32.0 °F - 32.0 °F 100% 30.22 in 5.0 mi Calm Calm - N/A   Clear
4:15 AM 32.0 °F - 32.0 °F 100% 30.22 in 7.0 mi Calm Calm - N/A   Clear
4:35 AM 32.0 °F - 32.0 °F 100% 30.22 in 5.0 mi Calm Calm - N/A   Clear
4:55 AM 32.0 °F - 32.0 °F 100% 30.22 in 5.0 mi Calm Calm - N/A   Scattered Clouds
5:15 AM 32.0 °F - 32.0 °F 100% 30.22 in 1.2 mi Calm Calm - N/A   Overcast
5:35 AM 32.0 °F - 32.0 °F 100% 30.22 in 0.2 mi Calm Calm - N/A Fog Fog
5:55 AM 32.0 °F - 32.0 °F 100% 30.23 in 0.2 mi Calm Calm - N/A Fog Fog
6:15 AM 32.0 °F - 32.0 °F 100% 30.23 in 0.2 mi Calm Calm - N/A Fog Fog
6:35 AM 32.0 °F - 32.0 °F 100% 30.24 in 0.2 mi Calm Calm - N/A Fog Fog
6:55 AM 32.0 °F - 32.0 °F 100% 30.24 in 0.2 mi Calm Calm - N/A Fog Fog
7:15 AM 32.0 °F - 32.0 °F 100% 30.24 in 0.2 mi Calm Calm - N/A Fog Fog
7:35 AM 32.0 °F - 32.0 °F 100% 30.24 in 0.2 mi Calm Calm - N/A Fog Fog
7:55 AM 32.0 °F - 32.0 °F 100% 30.24 in 0.2 mi Calm Calm - N/A Fog Fog
8:15 AM 33.8 °F - 33.8 °F 100% 30.24 in 0.2 mi Calm Calm - N/A Fog Fog
8:35 AM 33.8 °F - 33.8 °F 100% 30.24 in 0.2 mi Calm Calm - N/A Fog Fog
8:55 AM 35.6 °F - 35.6 °F 100% 30.25 in 0.2 mi Calm Calm - N/A Fog Fog
9:15 AM 35.6 °F - 35.6 °F 100% 30.25 in 0.2 mi Calm Calm - N/A Fog Fog
9:35 AM 39.2 °F - 39.2 °F 100% 30.26 in 2.0 mi Calm Calm - N/A   Overcast
9:55 AM 41.0 °F - 41.0 °F 100% 30.26 in 3.0 mi Calm Calm - N/A   Overcast
10:15 AM 42.8 °F - 42.8 °F 100% 30.26 in 7.0 mi Calm Calm - N/A   Mostly Cloudy
10:35 AM 44.6 °F - 42.8 °F 93% 30.25 in 10.0 mi Calm Calm - N/A   Scattered Clouds
10:55 AM 46.4 °F 44.3 °F 42.8 °F 87% 30.25 in 10.0 mi South 4.6 mph - N/A   Clear
11:15 AM 50.0 °F - 42.8 °F 76% 30.24 in 10.0 mi SW 4.6 mph - N/A   Clear
11:35 AM 51.8 °F - 39.2 °F 62% 30.24 in 10.0 mi WSW 5.8 mph - N/A   Clear
11:55 AM 51.8 °F - 39.2 °F 62% 30.23 in 10.0 mi SW 6.9 mph - N/A   Clear
12:15 PM 53.6 °F - 37.4 °F 54% 30.22 in 10.0 mi SSW 5.8 mph - N/A   Clear
12:35 PM 53.6 °F - 37.4 °F 54% 30.21 in 10.0 mi Calm Calm - N/A   Clear
12:55 PM 55.4 °F - 37.4 °F 51% 30.21 in 10.0 mi SSW 4.6 mph - N/A   Clear
1:35 PM 55.4 °F - 37.4 °F 51% 30.19 in 10.0 mi SSW 8.1 mph - N/A   Clear
1:55 PM 55.4 °F - 37.4 °F 51% 30.18 in 10.0 mi Calm Calm - N/A   Clear
2:15 PM 57.2 °F - 37.4 °F 48% 30.17 in 10.0 mi South 8.1 mph - N/A   Clear
2:35 PM 59.0 °F - 37.4 °F 45% 30.16 in 10.0 mi SSW 10.4 mph 16.1 mph N/A   Clear
2:55 PM 59.0 °F - 37.4 °F 45% 30.14 in 10.0 mi SSW 8.1 mph - N/A   Clear
3:15 PM 59.0 °F - 39.2 °F 48% 30.14 in 10.0 mi South 6.9 mph - 0.01 in   Clear
3:35 PM 59.0 °F - 41.0 °F 51% 30.13 in 10.0 mi South 8.1 mph - 0.01 in   Clear
3:55 PM 59.0 °F - 41.0 °F 51% 30.11 in 10.0 mi South 4.6 mph - 0.01 in   Clear
4:15 PM 60.8 °F - 39.2 °F 45% 30.11 in 10.0 mi SSE 8.1 mph - N/A   Clear
4:35 PM 60.8 °F - 37.4 °F 42% 30.10 in 10.0 mi South 8.1 mph - N/A   Clear
4:55 PM 60.8 °F - 39.2 °F 45% 30.10 in 10.0 mi SSE 5.8 mph - N/A   Clear
5:15 PM 60.8 °F - 39.2 °F 45% 30.09 in 10.0 mi South 9.2 mph - N/A   Clear
5:35 PM 59.0 °F - 37.4 °F 45% 30.09 in 10.0 mi South 8.1 mph - N/A   Clear
5:55 PM 59.0 °F - 39.2 °F 48% 30.09 in 10.0 mi South 10.4 mph - N/A   Clear
6:15 PM 57.2 °F - 39.2 °F 51% 30.09 in 10.0 mi South 5.8 mph - N/A   Clear
6:55 PM 53.6 °F - 37.4 °F 54% 30.07 in 10.0 mi Calm Calm - N/A   Clear
7:15 PM 51.8 °F - 39.2 °F 62% 30.07 in 10.0 mi Calm Calm - N/A   Clear
7:35 PM 50.0 °F - 39.2 °F 66% 30.07 in 10.0 mi Calm Calm - N/A   Clear
7:55 PM 48.2 °F - 39.2 °F 71% 30.07 in 10.0 mi Calm Calm - N/A   Clear
8:15 PM 46.4 °F - 39.2 °F 76% 30.07 in 10.0 mi Calm Calm - N/A   Clear
8:35 PM 44.6 °F - 39.2 °F 81% 30.07 in 10.0 mi Calm Calm - N/A   Clear
9:15 PM 44.6 °F - 39.2 °F 81% 30.07 in 10.0 mi Calm Calm - N/A   Clear
9:35 PM 44.6 °F - 39.2 °F 81% 30.07 in 10.0 mi Calm Calm - N/A   Clear
9:55 PM 44.6 °F - 39.2 °F 81% 30.08 in 10.0 mi Calm Calm - N/A   Clear
10:15 PM 44.6 °F - 39.2 °F 81% 30.08 in 10.0 mi Calm Calm - N/A   Clear
10:55 PM 44.6 °F - 39.2 °F 81% 30.09 in 10.0 mi Calm Calm - N/A   Clear
11:35 PM 44.6 °F - 37.4 °F 76% 30.09 in 10.0 mi Calm Calm - N/A   Clear
11:55 PM 41.0 °F - 37.4 °F 87% 30.09 in 10.0 mi Calm Calm - N/A   Clear